Time,TemperatureF,DewpointF,PressureIn,WindDirection,WindDirectionDegrees,WindSpeedMPH,WindSpeedGustMPH,Humidity,HourlyPrecipIn,Conditions,Clouds,dailyrainin,SolarRadiationWatts/m^2,SoftwareType,DateUTC
2013-09-15 00:02:00,53.8,57.4,30.04,SE,142,0.0,0.0,57,0.00,,,0.00,0.0,meteohub,2013-09-15 04:02:00,
2013-09-15 00:07:00,53.8,57.9,30.04,SE,130,1.0,0.0,58,0.00,,,0.00,0.0,meteohub,2013-09-15 04:07:00,
2013-09-15 00:12:00,53.4,57.9,30.04,ESE,106,0.0,3.0,58,0.00,,,0.00,0.0,meteohub,2013-09-15 04:12:00,
2013-09-15 00:17:00,53.4,57.9,30.04,SSE,163,0.0,5.0,58,0.00,,,0.00,0.0,meteohub,2013-09-15 04:17:00,
2013-09-15 00:22:00,53.4,57.9,30.04,SSE,161,0.0,5.0,58,0.00,,,0.00,0.0,meteohub,2013-09-15 04:22:00,
2013-09-15 00:27:00,53.4,57.9,30.04,SSE,161,0.0,5.0,58,0.00,,,0.00,0.0,meteohub,2013-09-15 04:27:00,
2013-09-15 00:32:00,53.6,57.9,30.05,SE,124,0.0,1.0,58,0.00,,,0.00,0.0,meteohub,2013-09-15 04:32:00,
2013-09-15 00:37:00,53.8,57.9,30.05,SE,124,0.0,1.0,58,0.00,,,0.00,0.0,meteohub,2013-09-15 04:37:00,
2013-09-15 00:42:00,53.6,57.4,30.05,SE,124,0.0,1.0,57,0.00,,,0.00,0.0,meteohub,2013-09-15 04:42:00,
2013-09-15 00:47:00,53.4,57.4,30.05,SE,124,0.0,1.0,57,0.00,,,0.00,0.0,meteohub,2013-09-15 04:47:00,
2013-09-15 00:52:00,53.4,57.9,30.05,SE,124,0.0,1.0,58,0.00,,,0.00,0.0,meteohub,2013-09-15 04:52:00,
2013-09-15 00:57:00,53.4,57.6,30.05,SE,124,0.0,1.0,58,0.00,,,0.00,0.0,meteohub,2013-09-15 04:57:00,
2013-09-15 01:02:00,53.2,57.6,30.05,SE,124,0.0,0.0,58,0.00,,,0.00,0.0,meteohub,2013-09-15 05:02:00,
2013-09-15 01:07:00,53.1,57.9,30.05,SE,124,0.0,0.0,58,0.00,,,0.00,0.0,meteohub,2013-09-15 05:07:00,
2013-09-15 01:12:00,53.1,57.9,30.06,SE,124,0.0,0.0,58,0.00,,,0.00,0.0,meteohub,2013-09-15 05:12:00,
2013-09-15 01:17:00,52.9,57.9,30.05,SE,124,0.0,0.0,58,0.00,,,0.00,0.0,meteohub,2013-09-15 05:17:00,
2013-09-15 01:22:00,52.9,57.9,30.06,SE,124,0.0,0.0,58,0.00,,,0.00,0.0,meteohub,2013-09-15 05:22:00,
2013-09-15 01:27:00,52.7,57.4,30.06,SE,124,2.0,0.0,57,0.00,,,0.00,0.0,meteohub,2013-09-15 05:27:00,
2013-09-15 01:32:00,53.1,57.4,30.06,ESE,107,0.0,2.0,57,0.00,,,0.00,0.0,meteohub,2013-09-15 05:32:00,
2013-09-15 01:37:00,53.1,57.6,30.06,ESE,107,0.0,2.0,58,0.00,,,0.00,0.0,meteohub,2013-09-15 05:37:00,
2013-09-15 01:42:00,52.9,57.6,30.06,ESE,111,2.0,2.0,58,0.00,,,0.00,0.0,meteohub,2013-09-15 05:42:00,
2013-09-15 01:47:00,52.9,57.6,30.06,ESE,111,0.0,2.0,58,0.00,,,0.00,0.0,meteohub,2013-09-15 05:47:00,
2013-09-15 01:52:00,52.7,57.9,30.06,ESE,111,0.0,2.0,58,0.00,,,0.00,0.0,meteohub,2013-09-15 05:52:00,
2013-09-15 01:57:00,52.5,57.9,30.06,ESE,111,1.0,2.0,58,0.00,,,0.00,0.0,meteohub,2013-09-15 05:57:00,
2013-09-15 02:02:00,52.3,57.9,30.06,SE,138,0.0,2.0,58,0.00,,,0.00,0.0,meteohub,2013-09-15 06:02:00,
2013-09-15 02:07:00,52.2,57.9,30.06,SE,138,0.0,2.0,58,0.00,,,0.00,0.0,meteohub,2013-09-15 06:07:00,
2013-09-15 02:12:00,52.0,57.9,30.06,SE,138,0.0,2.0,58,0.00,,,0.00,0.0,meteohub,2013-09-15 06:12:00,
2013-09-15 02:17:00,52.0,57.9,30.06,SE,138,0.0,1.0,58,0.00,,,0.00,0.0,meteohub,2013-09-15 06:17:00,
2013-09-15 02:22:00,52.0,56.8,30.06,SE,138,0.0,1.0,56,0.00,,,0.00,0.0,meteohub,2013-09-15 06:22:00,
2013-09-15 02:27:00,52.0,57.4,30.06,SE,138,0.0,1.0,57,0.00,,,0.00,0.0,meteohub,2013-09-15 06:27:00,
2013-09-15 02:32:00,52.0,57.6,30.06,SE,138,0.0,2.0,58,0.00,,,0.00,0.0,meteohub,2013-09-15 06:32:00,
2013-09-15 02:37:00,52.0,57.6,30.06,SE,138,0.0,2.0,58,0.00,,,0.00,0.0,meteohub,2013-09-15 06:37:00,
2013-09-15 02:42:00,52.0,57.6,30.06,SE,138,1.0,1.0,58,0.00,,,0.00,0.0,meteohub,2013-09-15 06:42:00,
2013-09-15 02:47:00,52.0,57.9,30.06,SE,138,0.0,2.0,58,0.00,,,0.00,0.0,meteohub,2013-09-15 06:47:00,
2013-09-15 02:52:00,52.0,57.9,30.06,SE,138,0.0,2.0,58,0.00,,,0.00,0.0,meteohub,2013-09-15 06:52:00,
2013-09-15 02:57:00,51.8,57.9,30.06,SE,138,0.0,2.0,58,0.00,,,0.00,0.0,meteohub,2013-09-15 06:57:00,
2013-09-15 03:02:00,51.6,57.9,30.06,SE,138,0.0,0.0,58,0.00,,,0.00,0.0,meteohub,2013-09-15 07:02:00,
2013-09-15 03:07:00,51.6,57.9,30.06,SE,138,0.0,0.0,58,0.01,,,0.01,0.0,meteohub,2013-09-15 07:07:00,
2013-09-15 03:12:00,51.4,57.4,30.06,SE,138,0.0,0.0,57,0.01,,,0.01,0.0,meteohub,2013-09-15 07:12:00,
2013-09-15 03:17:00,51.4,56.8,30.06,SE,138,0.0,0.0,56,0.01,,,0.01,0.0,meteohub,2013-09-15 07:17:00,
2013-09-15 03:22:00,51.3,57.4,30.06,SE,139,2.0,2.0,57,0.01,,,0.01,0.0,meteohub,2013-09-15 07:22:00,
2013-09-15 03:27:00,51.3,57.0,30.06,SSE,155,0.0,2.0,57,0.01,,,0.01,0.0,meteohub,2013-09-15 07:27:00,
2013-09-15 03:32:00,51.1,57.6,30.06,East,81,1.0,2.0,58,0.01,,,0.01,0.0,meteohub,2013-09-15 07:32:00,
2013-09-15 03:37:00,51.1,57.6,30.06,East,81,0.0,2.0,58,0.01,,,0.01,0.0,meteohub,2013-09-15 07:37:00,
2013-09-15 03:42:00,51.1,57.6,30.06,East,81,0.0,2.0,58,0.01,,,0.01,0.0,meteohub,2013-09-15 07:42:00,
2013-09-15 03:47:00,51.1,57.4,30.06,East,81,0.0,2.0,57,0.01,,,0.01,0.0,meteohub,2013-09-15 07:47:00,
2013-09-15 03:52:00,51.1,57.4,30.07,East,81,0.0,2.0,57,0.01,,,0.01,0.0,meteohub,2013-09-15 07:52:00,
2013-09-15 03:57:00,50.9,57.4,30.07,East,81,0.0,2.0,57,0.01,,,0.01,0.0,meteohub,2013-09-15 07:57:00,
2013-09-15 04:02:00,50.7,57.4,30.07,East,82,0.0,2.0,57,0.00,,,0.01,0.0,meteohub,2013-09-15 08:02:00,
2013-09-15 04:07:00,50.7,56.8,30.07,East,83,0.0,1.0,56,0.00,,,0.01,0.0,meteohub,2013-09-15 08:07:00,
2013-09-15 04:12:00,50.7,57.0,30.07,East,83,0.0,2.0,57,0.00,,,0.01,0.0,meteohub,2013-09-15 08:12:00,
2013-09-15 04:17:00,50.5,57.0,30.07,East,83,0.0,2.0,57,0.00,,,0.01,0.0,meteohub,2013-09-15 08:17:00,
2013-09-15 04:22:00,50.5,57.0,30.07,East,83,0.0,2.0,57,0.00,,,0.01,0.0,meteohub,2013-09-15 08:22:00,
2013-09-15 04:27:00,50.5,57.0,30.07,South,172,0.0,1.0,57,0.00,,,0.01,0.0,meteohub,2013-09-15 08:27:00,
2013-09-15 04:32:00,50.4,57.0,30.07,South,172,0.0,1.0,57,0.00,,,0.01,0.0,meteohub,2013-09-15 08:32:00,
2013-09-15 04:37:00,50.4,57.4,30.07,South,172,0.0,1.0,57,0.00,,,0.01,0.0,meteohub,2013-09-15 08:37:00,
2013-09-15 04:42:00,50.4,57.4,30.07,South,172,0.0,0.0,57,0.00,,,0.01,0.0,meteohub,2013-09-15 08:42:00,
2013-09-15 04:47:00,50.4,56.8,30.07,South,172,0.0,0.0,56,0.00,,,0.01,0.0,meteohub,2013-09-15 08:47:00,
2013-09-15 04:52:00,50.2,57.0,30.08,South,172,0.0,0.0,57,0.00,,,0.01,0.0,meteohub,2013-09-15 08:52:00,
2013-09-15 04:57:00,50.2,57.0,30.08,South,172,0.0,0.0,57,0.00,,,0.01,0.0,meteohub,2013-09-15 08:57:00,
2013-09-15 05:02:00,50.2,57.0,30.08,South,172,0.0,0.0,57,0.00,,,0.01,0.0,meteohub,2013-09-15 09:02:00,
2013-09-15 05:07:00,50.0,57.0,30.08,South,172,0.0,0.0,57,0.00,,,0.01,0.0,meteohub,2013-09-15 09:07:00,
2013-09-15 05:12:00,50.0,57.0,30.08,South,172,0.0,1.0,57,0.00,,,0.01,0.0,meteohub,2013-09-15 09:12:00,
2013-09-15 05:17:00,50.0,57.0,30.08,South,172,0.0,1.0,57,0.00,,,0.01,0.0,meteohub,2013-09-15 09:17:00,
2013-09-15 05:22:00,49.8,57.0,30.08,South,172,0.0,1.0,57,0.00,,,0.01,0.0,meteohub,2013-09-15 09:22:00,
2013-09-15 05:27:00,49.8,57.4,30.08,South,172,0.0,0.0,57,0.00,,,0.01,0.0,meteohub,2013-09-15 09:27:00,
2013-09-15 05:32:00,49.8,57.4,30.08,South,172,0.0,0.0,57,0.00,,,0.01,0.0,meteohub,2013-09-15 09:32:00,
2013-09-15 05:37:00,49.6,57.4,30.08,South,172,0.0,0.0,57,0.00,,,0.01,0.0,meteohub,2013-09-15 09:37:00,
2013-09-15 05:42:00,49.6,57.4,30.09,South,172,0.0,0.0,57,0.00,,,0.01,0.0,meteohub,2013-09-15 09:42:00,
2013-09-15 05:47:00,49.6,56.8,30.09,South,172,0.0,0.0,56,0.00,,,0.01,0.0,meteohub,2013-09-15 09:47:00,
2013-09-15 05:52:00,49.5,56.7,30.09,South,172,0.0,0.0,56,0.00,,,0.01,0.0,meteohub,2013-09-15 09:52:00,
2013-09-15 05:57:00,49.5,57.0,30.09,South,172,0.0,0.0,57,0.00,,,0.01,0.0,meteohub,2013-09-15 09:57:00,
2013-09-15 06:02:00,49.3,57.0,30.09,South,172,0.0,0.0,57,0.00,,,0.01,0.0,meteohub,2013-09-15 10:02:00,
2013-09-15 06:07:00,49.3,57.0,30.09,South,172,0.0,0.0,57,0.00,,,0.01,0.0,meteohub,2013-09-15 10:07:00,
2013-09-15 06:12:00,49.3,57.0,30.09,South,172,0.0,0.0,57,0.00,,,0.01,0.0,meteohub,2013-09-15 10:12:00,
2013-09-15 06:17:00,49.3,57.0,30.09,South,172,0.0,0.0,57,0.00,,,0.01,0.0,meteohub,2013-09-15 10:17:00,
2013-09-15 06:22:00,49.3,57.0,30.09,SSW,192,0.0,0.0,57,0.00,,,0.01,0.0,meteohub,2013-09-15 10:22:00,
2013-09-15 06:27:00,49.3,57.0,30.09,SSW,192,0.0,1.0,57,0.00,,,0.01,0.0,meteohub,2013-09-15 10:27:00,
2013-09-15 06:32:00,49.1,56.1,30.09,SSW,192,0.0,1.0,55,0.00,,,0.01,0.0,meteohub,2013-09-15 10:32:00,
2013-09-15 06:37:00,49.1,56.5,30.09,SSW,192,0.0,1.0,56,0.00,,,0.01,0.0,meteohub,2013-09-15 10:37:00,
2013-09-15 06:42:00,49.1,56.8,30.09,SSW,192,0.0,0.0,57,0.00,,,0.01,0.0,meteohub,2013-09-15 10:42:00,
2013-09-15 06:47:00,49.1,56.8,30.10,SSW,192,0.0,0.0,57,0.00,,,0.01,0.0,meteohub,2013-09-15 10:47:00,
2013-09-15 06:52:00,49.3,56.8,30.10,South,186,0.0,0.0,57,0.00,,,0.01,0.0,meteohub,2013-09-15 10:52:00,
2013-09-15 06:57:00,49.3,56.8,30.10,ESE,107,0.0,1.0,57,0.00,,,0.01,0.0,meteohub,2013-09-15 10:57:00,
2013-09-15 07:02:00,49.5,57.0,30.10,ESE,107,0.0,2.0,57,0.00,,,0.01,0.0,meteohub,2013-09-15 11:02:00,
2013-09-15 07:07:00,49.5,57.0,30.10,NNE,31,0.0,2.0,57,0.00,,,0.01,0.0,meteohub,2013-09-15 11:07:00,
2013-09-15 07:12:00,49.5,57.0,30.10,NNE,31,0.0,4.0,57,0.00,,,0.01,0.0,meteohub,2013-09-15 11:12:00,
2013-09-15 07:17:00,49.5,57.0,30.10,NNE,31,0.0,4.0,57,0.00,,,0.01,0.0,meteohub,2013-09-15 11:17:00,
2013-09-15 07:22:00,49.5,57.0,30.11,NNE,31,0.0,2.0,57,0.00,,,0.01,7.0,meteohub,2013-09-15 11:22:00,
2013-09-15 07:27:00,49.5,57.4,30.11,NNE,31,0.0,0.0,57,0.00,,,0.01,9.0,meteohub,2013-09-15 11:27:00,
2013-09-15 07:32:00,49.5,57.4,30.11,ENE,77,0.0,0.0,57,0.00,,,0.01,26.0,meteohub,2013-09-15 11:32:00,
2013-09-15 07:37:00,49.5,57.4,30.11,ENE,77,0.0,0.0,57,0.00,,,0.01,26.0,meteohub,2013-09-15 11:37:00,
2013-09-15 07:42:00,49.5,56.5,30.11,ENE,77,0.0,0.0,55,0.00,,,0.01,39.0,meteohub,2013-09-15 11:42:00,
2013-09-15 07:47:00,49.5,56.7,30.11,South,188,0.0,0.0,56,0.00,,,0.01,51.0,meteohub,2013-09-15 11:47:00,
2013-09-15 07:52:00,49.5,57.0,30.11,South,188,1.0,1.0,57,0.00,,,0.01,54.0,meteohub,2013-09-15 11:52:00,
2013-09-15 07:57:00,49.3,56.8,30.12,SSE,161,0.0,2.0,57,0.00,,,0.01,49.0,meteohub,2013-09-15 11:57:00,
2013-09-15 08:02:00,49.5,56.8,30.12,SSE,161,0.0,2.0,57,0.00,,,0.01,76.0,meteohub,2013-09-15 12:02:00,
2013-09-15 08:07:00,49.5,57.0,30.12,SSE,161,0.0,2.0,57,0.00,,,0.01,95.0,meteohub,2013-09-15 12:07:00,
2013-09-15 08:12:00,49.6,57.0,30.12,SSE,161,0.0,0.0,57,0.00,,,0.01,114.0,meteohub,2013-09-15 12:12:00,
2013-09-15 08:17:00,49.8,57.0,30.12,SSE,161,0.0,0.0,57,0.00,,,0.01,127.0,meteohub,2013-09-15 12:17:00,
2013-09-15 08:22:00,50.4,57.0,30.12,SSE,161,0.0,0.0,57,0.00,,,0.01,146.0,meteohub,2013-09-15 12:22:00,
2013-09-15 08:27:00,50.7,57.0,30.12,SSE,161,0.0,0.0,57,0.00,,,0.01,128.0,meteohub,2013-09-15 12:27:00,
2013-09-15 08:32:00,50.2,57.4,30.12,SSW,196,1.0,2.0,57,0.00,,,0.01,162.0,meteohub,2013-09-15 12:32:00,
2013-09-15 08:37:00,50.0,56.8,30.12,SSW,196,1.0,2.0,56,0.00,,,0.01,199.0,meteohub,2013-09-15 12:37:00,
2013-09-15 08:42:00,50.4,56.7,30.12,SSW,196,0.0,2.0,56,0.00,,,0.01,202.0,meteohub,2013-09-15 12:42:00,
2013-09-15 08:47:00,50.9,57.0,30.12,SSW,196,0.0,2.0,57,0.00,,,0.01,229.0,meteohub,2013-09-15 12:47:00,
2013-09-15 08:52:00,52.0,57.0,30.12,SSW,196,0.0,1.0,57,0.00,,,0.01,248.0,meteohub,2013-09-15 12:52:00,
2013-09-15 08:57:00,52.5,57.0,30.12,SSW,196,0.0,0.0,57,0.00,,,0.01,264.0,meteohub,2013-09-15 12:57:00,
2013-09-15 09:02:00,53.1,57.0,30.12,SSW,196,0.0,1.0,57,0.00,,,0.01,283.0,meteohub,2013-09-15 13:02:00,
2013-09-15 09:07:00,53.4,57.4,30.12,SSW,196,0.0,1.0,57,0.00,,,0.01,295.0,meteohub,2013-09-15 13:07:00,
2013-09-15 09:12:00,54.1,57.4,30.12,SSW,196,0.0,1.0,57,0.00,,,0.01,309.0,meteohub,2013-09-15 13:12:00,
2013-09-15 09:17:00,54.9,56.8,30.12,SSW,196,0.0,1.0,56,0.00,,,0.01,329.0,meteohub,2013-09-15 13:17:00,
2013-09-15 09:22:00,54.9,57.0,30.12,West,265,0.0,2.0,57,0.00,,,0.01,339.0,meteohub,2013-09-15 13:22:00,
2013-09-15 09:27:00,54.9,57.0,30.12,West,265,0.0,3.0,57,0.00,,,0.01,359.0,meteohub,2013-09-15 13:27:00,
2013-09-15 09:32:00,55.2,57.0,30.12,West,265,0.0,3.0,57,0.00,,,0.01,371.0,meteohub,2013-09-15 13:32:00,
2013-09-15 09:37:00,55.8,57.4,30.12,West,265,0.0,2.0,57,0.00,,,0.01,387.0,meteohub,2013-09-15 13:37:00,
2013-09-15 09:42:00,56.7,57.4,30.12,West,265,0.0,2.0,57,0.00,,,0.01,415.0,meteohub,2013-09-15 13:42:00,
2013-09-15 09:47:00,57.7,57.4,30.12,West,265,1.0,2.0,57,0.00,,,0.01,429.0,meteohub,2013-09-15 13:47:00,
2013-09-15 09:52:00,58.5,56.8,30.12,West,265,1.0,2.0,56,0.00,,,0.01,443.0,meteohub,2013-09-15 13:52:00,
2013-09-15 09:57:00,59.4,57.4,30.12,West,265,0.0,2.0,57,0.00,,,0.01,461.0,meteohub,2013-09-15 13:57:00,
2013-09-15 10:02:00,60.4,57.0,30.12,West,265,0.0,2.0,57,0.00,,,0.01,480.0,meteohub,2013-09-15 14:02:00,
2013-09-15 10:07:00,61.2,57.4,30.12,West,265,0.0,2.0,57,0.00,,,0.01,499.0,meteohub,2013-09-15 14:07:00,
2013-09-15 10:12:00,61.2,57.4,30.12,West,265,1.0,2.0,57,0.00,,,0.01,512.0,meteohub,2013-09-15 14:12:00,
2013-09-15 10:17:00,61.7,57.4,30.12,West,266,0.0,3.0,57,0.00,,,0.01,517.0,meteohub,2013-09-15 14:17:00,
2013-09-15 10:22:00,62.2,56.8,30.12,West,261,0.0,3.0,56,0.00,,,0.01,547.0,meteohub,2013-09-15 14:22:00,
2013-09-15 10:27:00,62.8,57.4,30.12,WSW,248,0.0,3.0,57,0.00,,,0.01,561.0,meteohub,2013-09-15 14:27:00,
2013-09-15 10:32:00,63.1,57.0,30.12,NNW,329,0.0,3.0,57,0.00,,,0.01,580.0,meteohub,2013-09-15 14:32:00,
2013-09-15 10:37:00,64.4,57.4,30.12,SE,139,1.0,3.0,57,0.00,,,0.01,608.0,meteohub,2013-09-15 14:37:00,
2013-09-15 10:47:00,65.1,56.8,30.11,SE,136,0.0,6.0,56,0.00,,,0.01,582.0,meteohub,2013-09-15 14:47:00,
2013-09-15 10:52:00,66.0,57.4,30.11,ESE,121,2.0,6.0,57,0.00,,,0.01,633.0,meteohub,2013-09-15 14:52:00,
2013-09-15 11:02:00,66.0,57.4,30.11,SSE,149,1.0,7.0,57,0.00,,,0.01,652.0,meteohub,2013-09-15 15:02:00,
2013-09-15 11:07:00,65.8,57.4,30.11,SSE,152,7.0,7.0,57,0.00,,,0.01,671.0,meteohub,2013-09-15 15:07:00,
2013-09-15 11:12:00,66.0,57.4,30.11,SSW,199,6.0,8.0,57,0.00,,,0.01,731.0,meteohub,2013-09-15 15:12:00,
2013-09-15 11:17:00,66.7,56.8,30.11,SSE,150,6.0,8.0,56,0.00,,,0.01,735.0,meteohub,2013-09-15 15:17:00,
2013-09-15 11:22:00,66.6,57.4,30.11,SSE,164,3.0,8.0,57,0.00,,,0.01,721.0,meteohub,2013-09-15 15:22:00,
2013-09-15 11:32:00,67.6,57.4,30.11,East,98,1.0,8.0,57,0.00,,,0.01,745.0,meteohub,2013-09-15 15:32:00,
2013-09-15 11:37:00,67.8,57.4,30.11,SSE,164,4.0,9.0,57,0.00,,,0.01,724.0,meteohub,2013-09-15 15:37:00,
2013-09-15 11:42:00,67.1,56.8,30.11,SE,127,5.0,9.0,56,0.00,,,0.01,761.0,meteohub,2013-09-15 15:42:00,
2013-09-15 11:47:00,67.3,57.4,30.11,SE,130,8.0,11.0,57,0.00,,,0.01,775.0,meteohub,2013-09-15 15:47:00,
2013-09-15 11:52:00,67.6,57.4,30.11,SE,146,3.0,11.0,57,0.00,,,0.01,782.0,meteohub,2013-09-15 15:52:00,
2013-09-15 11:57:00,67.5,57.9,30.11,South,183,3.0,11.0,58,0.00,,,0.01,798.0,meteohub,2013-09-15 15:57:00,
2013-09-15 12:02:00,68.2,57.9,30.11,SE,138,7.0,10.0,58,0.00,,,0.01,786.0,meteohub,2013-09-15 16:02:00,
2013-09-15 12:07:00,68.0,57.9,30.11,SE,140,4.0,10.0,58,0.00,,,0.01,758.0,meteohub,2013-09-15 16:07:00,
2013-09-15 12:12:00,68.5,57.4,30.10,ENE,69,1.0,10.0,57,0.00,,,0.01,833.0,meteohub,2013-09-15 16:12:00,
2013-09-15 12:17:00,68.9,56.8,30.10,East,80,3.0,10.0,56,0.00,,,0.01,865.0,meteohub,2013-09-15 16:17:00,
2013-09-15 12:22:00,69.1,57.0,30.10,SE,128,7.0,10.0,57,0.00,,,0.01,933.0,meteohub,2013-09-15 16:22:00,
2013-09-15 12:27:00,69.6,57.6,30.10,ESE,120,3.0,10.0,58,0.00,,,0.01,515.0,meteohub,2013-09-15 16:27:00,
2013-09-15 12:32:00,70.2,57.6,30.10,South,180,6.0,10.0,58,0.00,,,0.01,557.0,meteohub,2013-09-15 16:32:00,
2013-09-15 12:37:00,69.3,57.9,30.09,SSE,148,3.0,10.0,58,0.00,,,0.01,624.0,meteohub,2013-09-15 16:37:00,
2013-09-15 12:42:00,68.7,57.9,30.09,ESE,116,0.0,9.0,58,0.00,,,0.01,378.0,meteohub,2013-09-15 16:42:00,
2013-09-15 12:47:00,68.5,57.4,30.09,South,183,2.0,9.0,57,0.00,,,0.01,399.0,meteohub,2013-09-15 16:47:00,
2013-09-15 12:52:00,69.1,57.4,30.09,SE,133,3.0,9.0,57,0.00,,,0.01,399.0,meteohub,2013-09-15 16:52:00,
2013-09-15 12:57:00,71.1,57.9,30.09,SSW,213,2.0,8.0,58,0.00,,,0.01,1083.0,meteohub,2013-09-15 16:57:00,
2013-09-15 13:02:00,71.1,57.9,30.09,East,83,3.0,10.0,58,0.00,,,0.01,1144.0,meteohub,2013-09-15 17:02:00,
2013-09-15 13:07:00,70.2,57.9,30.09,East,82,1.0,10.0,58,0.00,,,0.01,459.0,meteohub,2013-09-15 17:07:00,
2013-09-15 13:12:00,69.4,57.4,30.09,East,83,5.0,10.0,57,0.00,,,0.01,519.0,meteohub,2013-09-15 17:12:00,
2013-09-15 13:17:00,70.2,57.4,30.09,SE,141,3.0,7.0,57,0.00,,,0.01,408.0,meteohub,2013-09-15 17:17:00,
2013-09-15 13:22:00,70.5,57.6,30.09,SE,145,0.0,8.0,58,0.00,,,0.01,1099.0,meteohub,2013-09-15 17:22:00,
2013-09-15 13:27:00,71.8,57.6,30.09,SSE,163,9.0,9.0,58,0.00,,,0.01,1113.0,meteohub,2013-09-15 17:27:00,
2013-09-15 13:32:00,71.8,57.9,30.09,ESE,119,4.0,10.0,58,0.00,,,0.01,1044.0,meteohub,2013-09-15 17:32:00,
2013-09-15 13:37:00,72.1,57.9,30.09,SE,132,6.0,11.0,58,0.00,,,0.01,415.0,meteohub,2013-09-15 17:37:00,
2013-09-15 13:42:00,72.0,57.9,30.08,SE,143,1.0,11.0,58,0.00,,,0.01,415.0,meteohub,2013-09-15 17:42:00,
2013-09-15 13:47:00,72.0,57.4,30.08,East,87,1.0,9.0,57,0.00,,,0.01,1011.0,meteohub,2013-09-15 17:47:00,
2013-09-15 13:52:00,72.7,57.9,30.08,East,87,1.0,9.0,58,0.00,,,0.01,960.0,meteohub,2013-09-15 17:52:00,
2013-09-15 13:57:00,72.7,57.6,30.08,SE,145,2.0,11.0,58,0.00,,,0.01,925.0,meteohub,2013-09-15 17:57:00,
2013-09-15 14:02:00,73.0,57.9,30.08,East,86,3.0,11.0,58,0.00,,,0.01,965.0,meteohub,2013-09-15 18:02:00,
2013-09-15 14:07:00,72.7,57.9,30.08,East,101,2.0,11.0,58,0.00,,,0.01,984.0,meteohub,2013-09-15 18:07:00,
2013-09-15 14:12:00,73.8,57.9,30.07,SE,136,6.0,9.0,58,0.00,,,0.01,939.0,meteohub,2013-09-15 18:12:00,
2013-09-15 14:17:00,73.8,57.4,30.07,East,88,5.0,8.0,57,0.00,,,0.01,928.0,meteohub,2013-09-15 18:17:00,
2013-09-15 14:22:00,74.1,57.9,30.07,ENE,67,0.0,8.0,58,0.00,,,0.01,940.0,meteohub,2013-09-15 18:22:00,
2013-09-15 14:27:00,73.8,57.9,30.06,East,90,3.0,8.0,58,0.00,,,0.01,921.0,meteohub,2013-09-15 18:27:00,
2013-09-15 14:32:00,73.2,57.9,30.06,SW,231,6.0,8.0,58,0.00,,,0.01,947.0,meteohub,2013-09-15 18:32:00,
2013-09-15 14:37:00,72.9,57.9,30.06,WSW,256,0.0,10.0,58,0.00,,,0.01,930.0,meteohub,2013-09-15 18:37:00,
2013-09-15 14:42:00,72.9,57.9,30.06,South,188,3.0,10.0,58,0.00,,,0.01,622.0,meteohub,2013-09-15 18:42:00,
2013-09-15 14:47:00,72.3,57.4,30.06,NE,40,4.0,8.0,57,0.00,,,0.01,765.0,meteohub,2013-09-15 18:47:00,
2013-09-15 14:52:00,73.8,57.9,30.06,East,89,2.0,9.0,58,0.00,,,0.01,287.0,meteohub,2013-09-15 18:52:00,
2013-09-15 14:57:00,72.5,57.9,30.06,WNW,287,2.0,9.0,58,0.00,,,0.01,272.0,meteohub,2013-09-15 18:57:00,
2013-09-15 15:02:00,72.5,57.9,30.05,WNW,294,0.0,9.0,58,0.00,,,0.01,274.0,meteohub,2013-09-15 19:02:00,
2013-09-15 15:07:00,73.0,57.9,30.05,ENE,76,2.0,6.0,58,0.00,,,0.01,327.0,meteohub,2013-09-15 19:07:00,
2013-09-15 15:12:00,72.9,57.4,30.05,SE,130,0.0,6.0,57,0.00,,,0.01,278.0,meteohub,2013-09-15 19:12:00,
2013-09-15 15:17:00,72.7,57.6,30.05,ESE,109,0.0,5.0,58,0.00,,,0.01,258.0,meteohub,2013-09-15 19:17:00,
2013-09-15 15:22:00,72.1,57.6,30.05,South,175,0.0,7.0,58,0.00,,,0.01,239.0,meteohub,2013-09-15 19:22:00,
2013-09-15 15:27:00,72.3,57.6,30.04,East,80,3.0,7.0,58,0.00,,,0.01,234.0,meteohub,2013-09-15 19:27:00,
2013-09-15 15:32:00,71.4,57.9,30.04,East,80,0.0,7.0,58,0.00,,,0.01,241.0,meteohub,2013-09-15 19:32:00,
2013-09-15 15:37:00,71.4,57.9,30.04,NE,47,0.0,4.0,58,0.00,,,0.01,288.0,meteohub,2013-09-15 19:37:00,
2013-09-15 15:42:00,71.6,57.4,30.04,North,5,1.0,4.0,57,0.00,,,0.01,316.0,meteohub,2013-09-15 19:42:00,
2013-09-15 15:47:00,72.1,57.6,30.04,North,0,0.0,5.0,58,0.00,,,0.01,745.0,meteohub,2013-09-15 19:47:00,
2013-09-15 15:52:00,73.9,57.6,30.04,East,97,1.0,5.0,58,0.00,,,0.01,336.0,meteohub,2013-09-15 19:52:00,
2013-09-15 15:57:00,73.9,57.6,30.03,East,96,0.0,5.0,58,0.00,,,0.01,782.0,meteohub,2013-09-15 19:57:00,
2013-09-15 16:02:00,74.5,57.9,30.03,SW,224,1.0,4.0,58,0.00,,,0.01,441.0,meteohub,2013-09-15 20:02:00,
2013-09-15 16:07:00,73.8,57.9,30.03,SSW,209,0.0,6.0,58,0.00,,,0.01,464.0,meteohub,2013-09-15 20:07:00,
2013-09-15 16:12:00,74.7,57.4,30.03,South,180,0.0,6.0,57,0.00,,,0.01,311.0,meteohub,2013-09-15 20:12:00,
2013-09-15 16:17:00,73.9,57.9,30.03,SE,144,0.0,6.0,58,0.00,,,0.01,336.0,meteohub,2013-09-15 20:17:00,
2013-09-15 16:22:00,73.9,57.6,30.03,SE,138,0.0,4.0,58,0.00,,,0.01,390.0,meteohub,2013-09-15 20:22:00,
2013-09-15 16:27:00,73.9,58.3,30.03,NE,53,1.0,7.0,59,0.00,,,0.01,705.0,meteohub,2013-09-15 20:27:00,
2013-09-15 16:32:00,75.0,58.3,30.03,ENE,63,0.0,7.0,59,0.00,,,0.01,661.0,meteohub,2013-09-15 20:32:00,
2013-09-15 16:37:00,75.0,58.3,30.02,South,170,0.0,5.0,59,0.00,,,0.01,650.0,meteohub,2013-09-15 20:37:00,
2013-09-15 16:42:00,74.8,57.4,30.03,South,170,0.0,5.0,57,0.00,,,0.01,241.0,meteohub,2013-09-15 20:42:00,
2013-09-15 16:47:00,75.0,57.9,30.03,NW,308,2.0,5.0,58,0.00,,,0.01,659.0,meteohub,2013-09-15 20:47:00,
2013-09-15 16:52:00,74.8,57.9,30.03,NW,311,0.0,4.0,58,0.00,,,0.01,227.0,meteohub,2013-09-15 20:52:00,
2013-09-15 16:57:00,74.1,58.3,30.03,NW,311,0.0,4.0,59,0.00,,,0.01,225.0,meteohub,2013-09-15 20:57:00,
2013-09-15 17:02:00,73.6,58.3,30.03,South,190,2.0,4.0,59,0.00,,,0.01,227.0,meteohub,2013-09-15 21:02:00,
2013-09-15 17:07:00,73.4,57.9,30.03,East,87,1.0,4.0,58,0.00,,,0.01,225.0,meteohub,2013-09-15 21:07:00,
2013-09-15 17:12:00,73.8,57.9,30.03,East,87,0.0,4.0,58,0.00,,,0.01,232.0,meteohub,2013-09-15 21:12:00,
2013-09-15 17:17:00,73.9,57.9,30.03,NW,314,1.0,3.0,58,0.00,,,0.01,471.0,meteohub,2013-09-15 21:17:00,
2013-09-15 17:22:00,74.7,58.3,30.03,North,0,2.0,3.0,59,0.00,,,0.01,468.0,meteohub,2013-09-15 21:22:00,
2013-09-15 17:27:00,74.8,58.3,30.03,NW,319,1.0,7.0,59,0.00,,,0.01,381.0,meteohub,2013-09-15 21:27:00,
2013-09-15 17:32:00,74.7,58.3,30.03,West,265,1.0,7.0,59,0.00,,,0.01,352.0,meteohub,2013-09-15 21:32:00,
2013-09-15 17:37:00,73.9,57.9,30.02,WNW,297,4.0,8.0,58,0.00,,,0.01,302.0,meteohub,2013-09-15 21:37:00,
2013-09-15 17:42:00,73.9,57.4,30.02,WNW,301,3.0,8.0,57,0.00,,,0.01,262.0,meteohub,2013-09-15 21:42:00,
2013-09-15 17:47:00,73.2,57.9,30.03,NW,304,2.0,7.0,58,0.00,,,0.01,264.0,meteohub,2013-09-15 21:47:00,
2013-09-15 17:52:00,73.0,58.1,30.03,WNW,292,0.0,7.0,59,0.00,,,0.01,246.0,meteohub,2013-09-15 21:52:00,
2013-09-15 17:57:00,73.0,58.3,30.03,NW,313,5.0,7.0,59,0.00,,,0.01,202.0,meteohub,2013-09-15 21:57:00,
2013-09-15 18:02:00,72.9,58.3,30.03,NE,40,1.0,7.0,59,0.00,,,0.01,207.0,meteohub,2013-09-15 22:02:00,
2013-09-15 18:07:00,72.3,58.3,30.03,West,278,0.0,7.0,59,0.00,,,0.01,236.0,meteohub,2013-09-15 22:07:00,
2013-09-15 18:12:00,72.5,57.9,30.03,NNW,344,3.0,7.0,58,0.00,,,0.01,297.0,meteohub,2013-09-15 22:12:00,
2013-09-15 18:17:00,72.5,57.9,30.03,NNE,12,2.0,6.0,58,0.00,,,0.01,267.0,meteohub,2013-09-15 22:17:00,
2013-09-15 18:22:00,72.5,58.1,30.04,NW,313,3.0,6.0,59,0.00,,,0.01,195.0,meteohub,2013-09-15 22:22:00,
2013-09-15 18:27:00,72.1,58.1,30.04,NNW,346,3.0,6.0,59,0.00,,,0.01,167.0,meteohub,2013-09-15 22:27:00,
2013-09-15 18:32:00,71.8,58.3,30.04,NNW,336,2.0,8.0,59,0.00,,,0.01,105.0,meteohub,2013-09-15 22:32:00,
2013-09-15 18:37:00,71.2,58.3,30.04,NNW,345,0.0,8.0,59,0.00,,,0.01,193.0,meteohub,2013-09-15 22:37:00,
2013-09-15 18:42:00,71.4,57.9,30.04,NNE,14,2.0,8.0,58,0.00,,,0.01,104.0,meteohub,2013-09-15 22:42:00,
2013-09-15 18:47:00,71.2,57.9,30.04,WSW,252,4.0,7.0,58,0.00,,,0.01,91.0,meteohub,2013-09-15 22:47:00,
2013-09-15 18:52:00,70.5,58.1,30.04,WNW,296,0.0,7.0,59,0.00,,,0.01,42.0,meteohub,2013-09-15 22:52:00,
2013-09-15 18:57:00,69.8,58.1,30.04,WNW,285,0.0,7.0,59,0.00,,,0.01,32.0,meteohub,2013-09-15 22:57:00,
2013-09-15 19:02:00,69.4,58.3,30.04,NNW,348,2.0,7.0,59,0.00,,,0.01,28.0,meteohub,2013-09-15 23:02:00,
2013-09-15 19:07:00,69.1,58.3,30.04,North,5,1.0,5.0,59,0.00,,,0.01,25.0,meteohub,2013-09-15 23:07:00,
2013-09-15 19:12:00,68.5,58.3,30.04,NNW,345,2.0,4.0,59,0.00,,,0.01,18.0,meteohub,2013-09-15 23:12:00,
2013-09-15 19:17:00,68.4,57.9,30.04,North,355,1.0,4.0,58,0.00,,,0.01,14.0,meteohub,2013-09-15 23:17:00,
2013-09-15 19:22:00,68.0,57.9,30.04,NNW,342,1.0,4.0,58,0.00,,,0.01,12.0,meteohub,2013-09-15 23:22:00,
2013-09-15 19:27:00,67.6,58.1,30.04,NNE,18,1.0,4.0,59,0.00,,,0.01,9.0,meteohub,2013-09-15 23:27:00,
2013-09-15 19:32:00,67.3,58.1,30.04,NNE,18,0.0,4.0,59,0.00,,,0.01,7.0,meteohub,2013-09-15 23:32:00,
2013-09-15 19:37:00,66.7,58.3,30.04,NNE,18,0.0,4.0,59,0.00,,,0.01,0.0,meteohub,2013-09-15 23:37:00,
2013-09-15 19:42:00,65.8,58.3,30.04,NE,40,1.0,4.0,59,0.00,,,0.01,0.0,meteohub,2013-09-15 23:42:00,
2013-09-15 19:47:00,65.3,57.9,30.04,NE,40,0.0,2.0,58,0.00,,,0.01,0.0,meteohub,2013-09-15 23:47:00,
2013-09-15 19:52:00,64.8,57.9,30.05,NE,40,0.0,1.0,58,0.00,,,0.01,0.0,meteohub,2013-09-15 23:52:00,
2013-09-15 19:57:00,64.4,58.1,30.05,NE,40,0.0,1.0,59,0.00,,,0.01,0.0,meteohub,2013-09-15 23:57:00,
2013-09-15 20:02:00,64.0,58.1,30.05,NE,40,0.0,0.0,59,0.00,,,0.01,0.0,meteohub,2013-09-16 00:02:00,
2013-09-15 20:07:00,63.7,58.1,30.05,NE,40,0.0,0.0,59,0.00,,,0.01,0.0,meteohub,2013-09-16 00:07:00,
2013-09-15 20:12:00,63.3,58.1,30.05,NE,40,0.0,0.0,59,0.00,,,0.01,0.0,meteohub,2013-09-16 00:12:00,
2013-09-15 20:17:00,63.1,58.3,30.05,ENE,78,0.0,1.0,59,0.00,,,0.01,0.0,meteohub,2013-09-16 00:17:00,
2013-09-15 20:22:00,62.8,58.3,30.05,ENE,78,0.0,1.0,59,0.00,,,0.01,0.0,meteohub,2013-09-16 00:22:00,
2013-09-15 20:27:00,62.6,57.9,30.05,ENE,78,0.0,1.0,58,0.00,,,0.01,0.0,meteohub,2013-09-16 00:27:00,
2013-09-15 20:32:00,62.2,58.1,30.06,ENE,78,0.0,0.0,59,0.00,,,0.01,0.0,meteohub,2013-09-16 00:32:00,
2013-09-15 20:37:00,62.1,58.1,30.06,ENE,78,0.0,0.0,59,0.00,,,0.01,0.0,meteohub,2013-09-16 00:37:00,
2013-09-15 20:42:00,61.9,58.1,30.06,ENE,78,0.0,0.0,59,0.00,,,0.01,0.0,meteohub,2013-09-16 00:42:00,
2013-09-15 20:47:00,61.5,58.1,30.06,ENE,78,0.0,0.0,59,0.00,,,0.01,0.0,meteohub,2013-09-16 00:47:00,
2013-09-15 20:52:00,61.3,58.3,30.06,ENE,78,0.0,0.0,59,0.00,,,0.01,0.0,meteohub,2013-09-16 00:52:00,
2013-09-15 20:57:00,61.2,58.3,30.06,ENE,78,0.0,0.0,59,0.00,,,0.01,0.0,meteohub,2013-09-16 00:57:00,
2013-09-15 21:02:00,61.0,57.9,30.06,ENE,78,0.0,0.0,58,0.00,,,0.01,0.0,meteohub,2013-09-16 01:02:00,
2013-09-15 21:07:00,60.6,58.1,30.07,ENE,78,0.0,0.0,59,0.00,,,0.01,0.0,meteohub,2013-09-16 01:07:00,
2013-09-15 21:12:00,60.4,58.1,30.07,ENE,78,0.0,0.0,59,0.00,,,0.01,0.0,meteohub,2013-09-16 01:12:00,
2013-09-15 21:17:00,60.3,58.1,30.07,ENE,78,0.0,1.0,59,0.00,,,0.01,0.0,meteohub,2013-09-16 01:17:00,
2013-09-15 21:22:00,60.3,58.1,30.07,ENE,78,0.0,1.0,59,0.00,,,0.01,0.0,meteohub,2013-09-16 01:22:00,
2013-09-15 21:27:00,60.1,58.3,30.07,ENE,78,0.0,1.0,59,0.00,,,0.01,0.0,meteohub,2013-09-16 01:27:00,
2013-09-15 21:32:00,60.1,58.3,30.08,ENE,78,0.0,0.0,59,0.00,,,0.01,0.0,meteohub,2013-09-16 01:32:00,
2013-09-15 21:37:00,60.3,57.9,30.08,ENE,78,0.0,1.0,58,0.00,,,0.01,0.0,meteohub,2013-09-16 01:37:00,
2013-09-15 21:42:00,60.3,58.1,30.08,ENE,78,1.0,2.0,59,0.00,,,0.01,0.0,meteohub,2013-09-16 01:42:00,
2013-09-15 21:47:00,60.3,58.1,30.08,ENE,78,0.0,2.0,59,0.00,,,0.01,0.0,meteohub,2013-09-16 01:47:00,
2013-09-15 21:52:00,60.3,58.1,30.08,ENE,78,0.0,2.0,59,0.00,,,0.01,0.0,meteohub,2013-09-16 01:52:00,
2013-09-15 21:57:00,60.1,58.1,30.08,ENE,78,0.0,2.0,59,0.00,,,0.01,0.0,meteohub,2013-09-16 01:57:00,
2013-09-15 22:02:00,59.7,58.1,30.08,ENE,78,0.0,1.0,59,0.00,,,0.01,0.0,meteohub,2013-09-16 02:02:00,
2013-09-15 22:07:00,59.5,57.9,30.08,East,79,0.0,1.0,58,0.00,,,0.01,0.0,meteohub,2013-09-16 02:07:00,
2013-09-15 22:12:00,59.4,57.6,30.08,East,79,0.0,1.0,58,0.00,,,0.01,0.0,meteohub,2013-09-16 02:12:00,
2013-09-15 22:17:00,59.2,58.1,30.07,East,79,1.0,1.0,59,0.00,,,0.01,0.0,meteohub,2013-09-16 02:17:00,
2013-09-15 22:22:00,59.2,58.1,30.08,East,79,0.0,2.0,59,0.00,,,0.01,0.0,meteohub,2013-09-16 02:22:00,
2013-09-15 22:27:00,59.0,58.1,30.08,East,79,0.0,2.0,59,0.00,,,0.01,0.0,meteohub,2013-09-16 02:27:00,
2013-09-15 22:32:00,58.8,58.1,30.08,ESE,110,0.0,2.0,59,0.00,,,0.01,0.0,meteohub,2013-09-16 02:32:00,
2013-09-15 22:37:00,58.6,58.1,30.08,ESE,109,0.0,2.0,59,0.00,,,0.01,0.0,meteohub,2013-09-16 02:37:00,
2013-09-15 22:42:00,58.6,58.1,30.08,ENE,59,3.0,3.0,59,0.00,,,0.01,0.0,meteohub,2013-09-16 02:42:00,
2013-09-15 22:47:00,58.6,57.6,30.08,ENE,65,0.0,3.0,58,0.00,,,0.01,0.0,meteohub,2013-09-16 02:47:00,
2013-09-15 22:52:00,58.5,57.9,30.08,ENE,65,0.0,3.0,59,0.00,,,0.01,0.0,meteohub,2013-09-16 02:52:00,
2013-09-15 22:57:00,58.3,57.9,30.08,ENE,65,0.0,3.0,59,0.00,,,0.01,0.0,meteohub,2013-09-16 02:57:00,
2013-09-15 23:02:00,58.1,58.3,30.08,ENE,65,0.0,1.0,60,0.00,,,0.01,0.0,meteohub,2013-09-16 03:02:00,
2013-09-15 23:07:00,57.7,58.5,30.08,ENE,65,0.0,1.0,60,0.00,,,0.01,0.0,meteohub,2013-09-16 03:07:00,
2013-09-15 23:12:00,57.7,58.5,30.08,ENE,65,0.0,1.0,60,0.00,,,0.01,0.0,meteohub,2013-09-16 03:12:00,
2013-09-15 23:17:00,57.4,58.1,30.08,ENE,65,0.0,2.0,59,0.00,,,0.01,0.0,meteohub,2013-09-16 03:17:00,
2013-09-15 23:22:00,57.2,57.6,30.08,ESE,113,0.0,2.0,58,0.00,,,0.01,0.0,meteohub,2013-09-16 03:22:00,
2013-09-15 23:27:00,57.2,57.6,30.08,ESE,114,0.0,2.0,58,0.00,,,0.01,0.0,meteohub,2013-09-16 03:27:00,
2013-09-15 23:32:00,57.0,57.9,30.08,ESE,113,0.0,2.0,59,0.00,,,0.01,0.0,meteohub,2013-09-16 03:32:00,
2013-09-15 23:37:00,57.0,57.9,30.08,ESE,113,0.0,1.0,59,0.00,,,0.01,0.0,meteohub,2013-09-16 03:37:00,
2013-09-15 23:42:00,56.8,58.3,30.08,ESE,113,0.0,2.0,60,0.00,,,0.01,0.0,meteohub,2013-09-16 03:42:00,
2013-09-15 23:47:00,56.7,58.5,30.08,ESE,113,1.0,2.0,60,0.00,,,0.01,0.0,meteohub,2013-09-16 03:47:00,
2013-09-15 23:52:00,56.7,58.1,30.08,ESE,114,1.0,1.0,59,0.00,,,0.01,0.0,meteohub,2013-09-16 03:52:00,
2013-09-15 23:57:00,56.7,58.1,30.08,ESE,114,0.0,1.0,59,0.00,,,0.01,0.0,meteohub,2013-09-16 03:57:00,